Theta_e
330 330 332 332 331 330 331 334 335 334 334 334 335 335 335 336 336 335 335 335 334 331 328 327 326 324 324 325 323 322 323 324 325 325 325 326 326 327 326 326 326 326 325 325 326 327 328 329 329 328 330 331 331 332 333 332 332 332 333 333 332 331 331 330 330 331 331 330 331 331 329 327 325 325 326 329 331 330 330 329 329 329 330 331 330
328 330 332 331 331 330 329 333 336 336 336 335 335 336 336 336 336 336 333 333 332 329 327 326 325 322 322 324 323 322 322 323 324 324 323 323 323 324 324 325 325 323 322 323 324 324 325 327 327 327 329 330 331 331 331 331 331 331 332 332 331 331 330 329 330 331 330 330 330 331 332 330 328 327 325 328 331 331 330 329 329 329 330 330 330
329 329 331 330 331 331 330 332 334 336 338 336 336 337 338 337 337 336 333 331 330 328 327 325 323 323 322 322 323 324 324 324 324 323 322 321 321 322 323 325 325 323 322 322 322 323 324 324 326 327 328 329 330 330 331 331 331 331 332 331 331 330 330 330 330 330 329 330 331 331 333 333 333 332 329 330 331 331 330 330 330 330 330 330 330
329 328 329 329 331 332 331 331 332 335 338 338 337 338 338 338 337 335 332 330 330 328 326 325 324 323 323 322 323 324 322 321 322 322 321 321 322 323 324 324 324 323 323 322 322 322 323 323 324 326 326 327 328 329 329 329 330 331 331 330 329 328 329 329 329 330 330 330 332 332 332 333 334 333 332 331 331 331 330 330 331 331 331 331 330
330 329 330 330 332 332 331 331 333 334 338 338 338 338 337 337 337 334 331 329 328 328 326 325 325 324 324 323 322 321 320 321 321 321 321 322 322 323 324 324 323 323 322 322 322 321 321 322 323 324 324 325 326 326 327 327 328 329 329 329 328 328 328 329 329 330 329 329 331 332 332 334 335 332 333 333 330 330 330 330 330 330 330 331 330
332 331 330 330 331 330 329 331 332 333 335 338 338 338 337 336 336 333 330 329 328 327 326 324 325 324 323 322 321 321 322 322 321 321 321 322 322 323 322 323 323 323 321 321 321 321 321 320 321 321 322 322 323 323 325 326 327 327 328 328 329 329 329 329 329 329 329 329 330 331 331 333 333 332 334 335 331 328 329 329 329 329 329 330 330
332 332 330 332 331 331 331 330 331 330 332 336 338 338 336 336 336 332 330 329 327 328 326 323 324 323 321 320 320 321 322 322 321 321 321 321 322 322 322 323 323 322 322 321 321 321 321 320 320 320 320 320 321 321 322 323 324 325 325 327 327 328 328 328 328 328 329 329 329 329 329 329 330 331 333 335 335 332 330 328 328 328 328 328 330
332 331 332 333 332 332 331 329 328 327 329 335 338 338 336 335 336 332 330 329 328 328 324 322 323 321 320 319 319 322 322 322 322 321 321 320 321 321 322 323 323 323 322 322 321 321 321 321 320 319 319 319 320 321 322 321 321 322 323 324 325 325 326 326 325 326 327 327 326 328 329 328 327 327 327 331 334 335 332 330 327 325 327 328 328
330 331 333 334 333 332 330 328 328 327 329 334 338 338 335 335 335 332 330 329 328 328 323 321 321 319 319 320 319 322 321 321 321 321 320 320 321 321 321 322 322 321 321 321 320 319 319 319 318 316 315 315 316 317 318 318 318 320 321 322 322 322 324 324 323 324 325 325 324 325 327 328 327 326 327 328 331 333 334 333 328 326 328 327 326
324 327 330 332 331 331 330 329 331 329 328 330 335 338 335 335 336 332 330 330 328 326 323 322 322 320 320 320 321 322 320 320 321 320 320 320 321 321 320 321 321 321 321 319 317 316 316 315 315 314 314 314 314 315 314 316 317 318 319 320 320 320 320 321 321 321 322 322 322 322 322 324 325 327 328 327 327 328 330 330 327 327 329 327 323
319 320 324 328 330 331 330 331 331 331 328 328 333 338 335 334 335 333 331 330 328 326 323 323 322 320 321 321 320 321 320 319 320 320 321 320 321 321 320 321 321 321 320 317 315 315 314 314 314 314 315 315 315 316 316 317 317 318 318 319 319 319 319 319 319 320 319 318 318 318 318 319 321 321 321 320 321 322 323 323 321 320 321 319 320
319 318 322 327 330 331 332 333 333 331 330 329 331 336 335 334 335 333 331 331 329 326 323 323 323 321 321 320 320 320 319 320 321 320 321 321 320 320 320 321 321 320 319 317 316 316 314 314 315 314 315 315 315 316 316 317 317 318 318 318 318 319 319 318 319 319 318 317 316 316 317 317 317 317 317 316 318 319 319 320 318 317 317 316 317
318 320 324 328 329 330 330 333 334 333 333 332 331 334 335 334 335 333 332 331 329 327 324 324 323 322 321 321 320 320 319 320 321 320 321 321 320 321 321 321 320 320 319 318 317 317 316 316 316 315 314 315 315 315 316 316 316 316 318 317 317 317 317 316 317 317 316 317 316 315 316 316 314 314 315 315 315 316 316 318 318 316 317 317 315
322 323 326 328 329 330 328 330 334 335 335 334 333 335 335 334 334 333 332 331 329 327 324 324 324 322 321 321 321 321 320 321 322 321 321 322 321 321 321 321 321 319 319 318 316 317 317 317 317 315 314 314 314 315 316 316 316 316 317 317 317 317 316 315 316 315 315 316 315 315 314 314 314 314 314 314 314 314 314 316 316 316 316 316 316
325 326 327 328 330 332 329 330 333 335 333 332 332 334 334 334 334 333 332 332 330 327 325 324 324 323 322 321 321 321 320 320 322 321 321 321 321 320 320 321 321 320 319 318 317 317 318 318 317 316 314 314 314 314 315 315 316 316 316 316 316 316 315 314 314 314 313 313 314 315 314 313 312 312 313 314 314 313 313 313 314 316 318 317 317
327 328 328 327 328 330 330 330 331 332 332 331 331 332 333 333 333 332 331 332 330 327 325 325 324 324 323 322 321 321 321 320 321 321 321 321 321 321 320 320 321 320 320 319 316 317 319 318 317 316 315 315 314 314 315 314 315 316 316 316 316 315 315 315 314 314 313 312 313 315 315 312 311 312 313 313 313 313 313 313 313 314 316 317 318
327 329 329 328 328 328 328 329 329 329 330 330 330 330 330 331 331 331 330 332 331 327 326 325 324 324 324 323 322 321 321 320 320 321 321 320 321 321 320 319 321 321 320 320 317 316 319 319 317 317 316 315 315 315 315 314 314 315 315 316 316 316 316 315 315 315 314 313 312 313 314 311 309 312 313 311 312 313 313 313 313 313 314 315 317
326 327 327 327 328 327 327 327 327 328 328 329 329 329 329 329 329 330 329 330 330 328 326 325 324 325 324 324 323 322 322 321 319 320 321 320 320 322 320 319 320 321 321 321 318 317 319 319 318 317 316 316 315 315 315 314 315 316 315 315 316 315 314 314 314 314 313 312 312 312 313 312 309 311 313 312 312 313 312 312 313 312 313 314 315
325 326 327 327 327 327 326 326 326 327 327 328 327 328 328 328 328 329 328 328 329 329 327 325 325 325 324 324 324 324 324 323 321 321 321 321 320 321 321 319 319 320 321 322 319 318 319 319 318 318 317 316 316 316 315 314 315 315 315 315 314 313 314 314 313 312 312 312 312 311 312 312 309 309 311 313 312 311 311 311 310 310 312 313 313
324 324 325 326 326 326 325 325 326 327 327 327 327 327 327 326 326 327 327 327 326 327 327 325 325 326 325 325 324 324 325 325 324 323 323 323 322 321 321 320 319 320 321 323 321 319 319 319 318 319 318 317 316 316 315 314 314 315 314 315 314 313 314 314 311 312 312 312 312 311 311 310 307 308 310 311 310 311 311 311 310 310 311 312 312
324 324 323 324 324 325 324 325 325 326 326 327 327 326 326 326 326 326 326 326 325 324 325 325 325 325 326 326 325 325 326 324 323 322 322 323 323 323 321 320 320 320 320 322 322 320 320 319 318 319 319 318 317 316 315 314 314 315 314 314 314 313 313 313 312 311 311 311 311 311 311 311 309 308 308 309 309 310 310 311 311 311 311 311 311
323 323 322 323 323 324 324 324 324 325 325 325 324 324 325 325 325 326 325 325 324 324 324 325 325 325 325 325 326 326 326 324 322 321 321 322 323 322 322 321 321 320 319 320 321 321 321 320 319 319 319 319 318 316 316 315 315 315 314 315 314 313 313 313 313 311 311 311 310 309 310 311 310 308 307 309 309 308 309 310 310 310 309 310 309
321 321 322 322 323 323 323 323 323 324 323 322 321 321 322 322 323 324 325 324 324 323 324 325 324 325 324 324 324 324 325 324 323 321 321 321 321 322 323 323 321 321 320 319 319 320 321 320 320 320 319 319 318 317 316 315 315 316 315 315 314 313 313 314 313 312 312 312 311 310 311 311 310 310 310 310 309 309 309 309 309 309 309 308 308
318 319 319 320 320 320 320 321 321 322 321 320 320 320 321 320 320 320 322 323 324 324 324 324 324 324 323 323 323 323 322 322 322 322 321 320 321 321 322 323 322 322 321 320 320 320 320 320 320 320 320 319 319 318 317 316 315 316 315 315 314 312 312 313 313 312 312 312 311 311 311 311 311 310 309 309 309 309 309 308 308 308 308 308 308
316 316 317 317 317 316 316 317 318 318 318 318 318 318 318 318 318 319 319 320 322 323 323 324 324 324 324 324 324 324 323 322 321 321 320 320 321 320 320 321 322 323 322 321 321 320 320 320 320 320 320 320 319 319 318 317 316 316 316 316 314 312 313 313 312 312 311 311 311 311 310 310 309 309 309 309 309 308 308 307 307 307 307 307 307
316 316 317 317 316 314 314 314 314 314 315 315 315 315 315 315 315 316 316 318 319 321 322 323 324 325 324 325 325 324 325 325 324 323 322 322 321 320 319 320 321 322 321 321 321 321 320 320 320 320 320 320 320 319 319 318 317 316 315 315 314 313 313 313 312 312 311 310 310 310 309 309 308 308 308 308 307 307 307 306 306 306 306 306 306
316 316 317 317 316 316 315 313 313 313 313 313 313 313 313 313 313 314 314 314 315 316 317 318 320 322 323 323 324 324 325 325 324 324 324 323 322 320 319 318 319 320 319 319 320 321 319 319 320 320 320 320 321 320 319 318 318 317 316 315 314 313 313 313 312 311 311 309 309 309 308 307 307 307 306 307 307 306 304 304 304 303 303 303 303
316 316 316 316 316 316 316 314 313 313 313 313 313 313 313 313 312 312 312 312 312 313 313 314 315 316 316 317 319 319 320 321 321 321 323 324 323 322 322 321 321 321 319 319 321 321 320 319 320 321 320 319 320 320 320 319 318 317 316 315 314 313 313 312 312 311 310 309 308 307 307 306 306 305 305 306 304 300 298 298 299 299 300 301 301
315 315 316 316 315 316 316 314 313 312 313 312 312 312 312 311 311 311 311 311 310 311 311 312 313 312 312 313 314 314 314 316 316 318 320 322 323 323 323 323 323 323 322 322 322 321 321 320 320 320 320 320 320 320 319 319 318 318 317 315 314 314 313 312 312 311 309 308 308 306 305 306 305 305 305 304 301 297 294 294 294 295 297 299 300
315 315 315 315 315 315 314 314 312 312 312 312 312 312 311 311 310 309 309 310 309 309 309 309 310 310 310 310 311 311 312 313 313 314 315 317 318 320 322 323 323 323 323 322 322 321 321 320 320 320 320 320 320 320 319 318 318 319 317 315 315 314 313 312 312 310 308 307 306 305 305 305 304 304 304 302 299 298 296 295 295 296 296 297 297
314 315 314 314 314 314 313 313 312 312 311 310 311 311 311 310 309 309 308 309 308 308 309 309 308 308 308 308 309 310 310 310 311 312 313 313 314 315 318 319 320 321 321 322 322 322 322 321 321 321 320 320 320 320 319 319 319 319 317 316 315 314 313 312 311 309 307 307 306 305 305 305 304 303 302 301 300 300 298 297 298 298 298 298 298
312 313 313 313 313 312 312 312 311 311 310 309 309 309 310 310 308 308 308 308 308 308 308 309 308 308 307 307 308 308 308 309 309 310 310 311 312 312 314 314 315 317 318 320 321 322 322 322 322 322 322 321 321 320 320 319 319 318 317 315 314 314 313 312 310 308 307 307 306 305 305 305 304 303 302 302 301 300 299 299 300 300 299 299 299
313 312 312 312 312 312 311 311 310 310 310 308 308 309 310 309 308 308 308 308 308 308 308 308 308 308 308 307 307 307 307 308 309 309 309 309 310 311 311 312 313 315 316 317 319 319 320 321 322 322 322 322 322 320 319 319 318 317 315 314 314 313 312 310 309 308 307 306 306 305 304 304 304 303 302 302 301 300 300 300 300 300 299 299 299
313 312 312 312 312 311 310 310 310 309 309 308 308 309 309 308 308 308 308 308 307 307 308 308 308 308 308 308 308 308 308 308 308 308 308 309 309 309 310 311 312 313 314 315 317 317 318 319 320 321 321 322 321 320 319 319 318 316 315 314 312 311 310 308 308 307 306 305 304 304 303 303 303 303 302 301 301 301 301 300 299 299 299 299 299
315 315 314 312 311 310 309 309 309 308 307 307 307 308 309 308 308 308 308 308 307 307 307 307 307 308 307 307 308 308 308 308 308 308 308 308 309 309 310 310 311 312 312 313 314 316 317 318 319 319 320 320 320 319 319 318 317 315 314 312 310 309 308 307 306 306 305 304 303 303 302 302 302 301 301 301 300 301 300 299 298 298 297 297 298
315 315 314 311 309 309 308 308 308 308 307 307 308 308 308 308 308 308 308 308 308 307 307 307 307 307 307 307 307 308 309 309 309 308 308 308 308 309 309 310 311 312 312 312 313 314 315 316 317 318 319 319 319 318 318 317 315 314 312 310 309 308 306 305 304 304 303 303 302 302 302 302 301 301 301 301 301 300 300 298 298 297 297 297 297
311 311 311 310 309 309 308 308 307 307 307 307 307 307 307 308 308 308 307 307 307 308 307 307 307 307 307 306 307 308 308 308 308 308 308 308 308 309 309 309 310 311 312 313 312 313 314 315 315 317 318 318 317 317 316 315 313 312 310 308 307 306 304 303 302 302 302 302 302 302 302 302 302 302 302 302 300 300 299 298 297 297 297 297 297
307 308 308 309 308 307 307 306 306 306 305 306 305 306 307 307 308 307 307 307 307 307 307 307 307 307 307 307 307 307 308 308 308 308 307 307 307 308 308 309 309 309 310 312 313 313 313 314 314 315 317 317 316 315 313 311 310 309 307 306 305 304 302 301 301 301 301 302 302 302 302 301 301 301 301 300 299 299 298 297 297 297 297 297 297
306 306 306 306 306 305 306 305 304 304 304 304 305 306 306 306 306 306 306 307 307 307 308 307 307 307 307 306 306 307 307 307 308 308 308 308 308 307 308 308 308 309 310 311 312 312 313 313 314 315 315 315 315 313 310 308 307 306 305 304 303 302 302 301 301 301 301 301 301 301 301 300 300 300 299 298 298 297 296 296 296 295 296 296 296
305 305 305 305 305 304 305 305 304 304 304 305 305 305 305 305 305 305 305 306 306 306 307 307 307 307 306 306 306 306 307 307 308 308 308 309 308 308 308 308 309 310 310 311 312 312 312 312 312 313 313 313 312 310 306 305 305 303 303 302 301 300 300 300 300 300 300 300 300 299 299 298 298 298 297 296 296 295 295 294 294 294 293 294 294
305 305 304 304 304 304 304 304 303 304 304 304 304 304 305 305 305 305 305 305 305 305 306 306 307 307 306 306 306 306 306 306 307 308 308 308 308 308 309 309 309 309 310 312 312 312 311 309 309 310 309 309 309 307 303 301 301 301 300 300 299 299 299 299 299 299 298 298 297 297 297 297 297 297 296 296 295 294 294 293 292 292 291 291 291
304 304 304 304 304 304 304 304 303 303 303 304 304 304 304 305 305 305 305 305 305 305 305 306 306 306 306 306 306 305 306 306 306 307 308 308 308 308 309 309 310 310 312 313 312 310 309 307 306 306 306 306 305 303 299 297 298 298 298 298 298 297 297 298 298 297 295 295 295 296 296 297 296 296 296 295 294 293 292 292 291 291 291 291 290
304 304 303 304 303 304 303 303 303 303 303 303 303 303 303 304 304 305 305 305 305 305 305 305 305 305 305 305 305 305 306 306 306 307 308 309 309 309 309 310 310 311 313 312 310 308 306 304 302 301 302 302 299 297 297 297 297 297 297 296 296 296 295 295 294 293 293 294 295 296 297 297 296 295 295 294 293 292 292 292 292 291 291 291 290
304 304 303 303 303 303 303 303 303 303 303 303 303 303 303 303 304 304 304 304 305 304 305 304 304 304 304 304 305 305 305 305 306 306 307 308 309 309 309 310 310 311 312 311 308 307 305 303 300 298 297 296 296 296 297 297 297 296 295 295 295 294 293 293 293 293 294 295 296 296 296 296 295 295 294 293 292 292 292 292 292 292 291 291 291
302 303 302 302 302 303 303 303 303 303 302 302 303 303 303 303 303 303 303 304 304 304 304 304 304 304 304 304 304 304 305 305 306 306 307 308 308 309 309 310 310 311 310 310 308 306 304 302 300 298 295 294 295 296 295 295 295 295 295 294 294 294 294 294 295 295 295 295 296 296 295 295 294 293 293 293 293 293 293 292 292 292 292 292 291
301 301 301 301 302 302 302 302 302 302 302 303 303 303 303 303 303 303 303 303 303 304 304 304 304 304 304 304 305 304 305 305 305 306 307 307 307 308 309 309 310 309 309 309 308 305 304 302 300 298 296 294 294 294 294 294 295 294 294 294 295 295 296 295 295 295 295 295 295 295 294 293 293 293 293 293 293 293 293 293 293 292 292 292 292
300 301 301 301 301 301 302 302 302 302 302 302 302 303 303 303 303 303 303 303 304 304 304 304 304 304 304 305 305 305 305 305 305 305 306 306 308 309 309 309 309 308 308 308 306 304 303 302 300 299 297 295 294 294 294 295 295 295 295 296 296 295 295 295 295 294 294 293 293 292 293 293 293 294 294 294 294 294 294 293 293 292 292 292 292
300 300 301 301 301 301 301 301 301 302 302 302 302 302 303 303 303 303 303 303 303 303 304 304 304 304 305 304 305 305 305 305 305 305 306 307 308 309 308 308 308 307 308 308 306 303 302 301 300 299 297 296 295 295 295 295 295 295 295 295 295 294 294 293 293 292 292 292 292 292 293 294 294 294 294 294 294 293 293 292 292 292 291 291 291
300 300 301 301 301 301 301 301 302 302 302 302 303 303 303 303 303 303 303 303 303 304 304 304 304 304 304 304 304 305 304 304 306 307 307 307 308 308 307 307 306 306 307 307 304 302 301 300 299 298 298 297 296 296 296 296 295 294 293 293 293 292 292 291 291 291 292 292 293 293 294 294 294 294 293 293 293 292 292 292 291 291 291 291 290
301 301 301 301 301 302 302 302 302 302 302 302 302 302 303 303 303 303 303 303 304 304 304 304 304 304 304 304 304 305 305 305 307 306 305 305 305 306 306 306 305 306 306 305 302 301 300 299 298 298 298 297 296 295 294 293 292 291 291 290 290 290 291 291 291 292 292 292 293 293 294 294 293 293 293 292 292 292 291 291 291 291 291 290 290
301 301 301 301 301 301 301 301 301 301 301 302 302 302 302 302 303 303 303 303 304 304 303 304 304 304 305 305 305 306 307 307 306 304 303 302 301 302 302 302 302 303 303 302 300 299 299 298 297 297 297 296 294 292 291 291 290 290 290 290 290 291 291 291 291 292 292 292 293 293 293 293 293 292 292 292 292 291 291 291 291 290 290 290 290
Wind_Speed
13 17 19 17 15 15 16 15 15 14 16 18 18 19 19 19 19 17 16 15 14 13 10 9 9 8 7 7 8 6 6 7 7 8 8 7 7 7 6 6 5 4 5 6 5 5 3 3 4 3 3 1 3 5 7 10 10 9 6 4 4 3 3 3 4 5 3 2 0 1 5 9 8 8 8 8 7 8 9 10 10 9 8 5 7
13 14 16 18 14 12 13 13 14 14 15 18 18 19 19 19 19 18 18 16 14 13 10 9 9 8 6 7 9 7 7 10 10 9 7 7 8 7 6 6 5 5 6 6 5 7 6 4 4 5 4 3 1 1 4 6 6 7 6 3 2 5 6 5 6 7 4 3 2 1 3 6 7 7 10 9 8 8 7 8 9 10 11 9 8
13 11 13 17 17 14 13 14 15 15 16 18 18 18 20 19 19 19 18 17 15 13 11 9 10 9 7 7 10 11 12 13 12 10 8 8 8 7 7 6 6 6 6 6 6 7 7 6 6 5 4 5 4 3 2 2 3 4 3 4 5 4 6 6 7 7 6 5 2 1 0 2 3 3 5 6 7 7 5 5 6 7 9 10 12
12 10 10 14 16 16 15 17 19 18 18 19 19 19 20 19 20 20 19 17 16 15 13 12 12 11 11 10 11 12 12 12 12 10 8 8 8 8 8 8 8 8 8 9 8 7 7 6 7 6 5 5 5 5 4 4 3 2 2 5 6 5 6 7 7 8 9 7 2 1 2 1 2 1 1 4 3 3 2 2 3 5 7 7 10
11 10 10 10 13 15 16 17 18 19 20 20 20 19 19 19 21 20 19 19 18 16 16 16 15 13 12 11 11 12 11 10 11 8 7 8 8 8 8 8 8 8 8 9 9 8 8 6 6 6 6 5 5 5 5 6 7 5 2 3 5 7 7 6 5 5 8 8 3 2 2 1 2 1 1 1 1 1 2 3 3 4 5 6 7
12 12 12 10 13 16 17 17 17 19 21 21 20 20 20 20 21 21 20 20 19 18 17 18 17 15 14 11 11 12 11 11 10 8 8 9 8 8 8 8 8 8 8 8 8 7 7 5 6 7 6 5 6 8 8 7 9 11 8 6 5 6 7 5 5 4 5 7 4 2 1 2 3 2 1 1 3 3 3 3 4 4 5 5 5
10 11 11 9 10 13 16 18 17 17 20 21 21 20 21 22 22 22 21 21 21 19 18 19 17 16 15 12 12 12 12 12 11 9 9 9 8 7 8 8 8 8 9 8 8 7 7 6 8 9 8 5 5 9 12 11 11 12 11 9 8 7 7 6 6 6 5 4 3 2 1 1 3 3 2 1 1 2 2 3 5 6 7 7 5
11 11 12 11 10 11 15 19 19 18 21 22 23 22 22 24 23 23 22 22 23 20 20 20 18 18 16 13 12 12 14 14 11 9 9 8 7 6 7 8 8 8 8 8 8 8 8 8 7 9 10 9 8 9 11 12 12 12 10 11 11 9 8 7 7 7 5 4 2 2 2 3 3 3 3 3 2 0 2 4 5 5 5 7 7
13 13 14 14 14 15 17 20 22 24 25 21 23 24 23 24 24 23 23 23 23 22 21 20 19 19 17 13 13 14 15 14 12 10 9 8 7 6 8 8 7 8 8 8 9 8 8 8 7 8 11 12 12 10 9 9 10 10 10 11 11 9 8 7 7 8 7 5 3 2 3 6 6 5 4 4 3 2 2 3 4 3 3 6 8
8 11 13 16 20 23 24 24 24 28 26 19 19 24 24 24 25 24 23 23 24 23 22 21 19 19 17 14 14 17 16 15 13 12 10 9 8 7 7 7 7 8 8 8 8 9 8 8 8 8 10 11 11 10 9 9 9 9 10 10 10 9 10 9 10 9 7 5 5 4 3 1 3 4 3 1 3 3 2 3 4 4 3 5 6
1 4 7 12 20 26 27 27 25 26 25 20 20 22 26 26 25 24 23 24 25 24 23 22 20 20 18 15 15 18 17 16 16 14 11 10 9 8 7 7 7 7 7 7 8 8 8 8 8 8 8 9 10 10 9 9 9 9 9 10 10 10 10 11 11 11 8 6 8 10 10 9 7 6 7 7 6 3 3 4 6 9 9 9 7
1 1 4 5 8 15 20 22 22 23 23 23 22 21 24 26 26 25 24 25 26 25 24 23 22 20 18 16 16 19 18 17 17 15 13 11 10 9 9 8 8 7 7 7 7 7 7 8 8 7 8 8 9 8 9 9 8 9 9 10 10 10 10 10 10 10 9 9 9 9 9 9 9 9 9 9 9 8 6 4 7 11 10 11 13
1 3 7 5 2 3 9 14 19 21 23 25 23 19 20 22 25 26 25 26 27 26 26 24 23 21 19 18 17 18 18 16 17 16 14 12 11 10 10 10 9 9 8 7 7 6 6 7 6 6 6 7 7 8 8 9 8 9 10 10 10 10 10 11 10 10 10 9 9 8 8 9 9 8 7 7 6 7 8 5 7 10 8 10 14
5 7 7 5 3 2 3 8 14 18 19 21 20 17 17 18 22 24 24 27 27 27 27 25 23 22 21 19 18 18 18 16 16 15 14 13 12 11 10 10 10 10 9 8 7 7 6 6 5 5 5 5 6 7 8 8 8 9 9 9 10 10 9 10 10 10 9 8 9 8 8 8 8 7 7 7 6 7 8 8 8 9 9 10 11
8 8 6 6 4 5 4 1 6 14 15 15 16 16 16 17 20 22 22 25 27 27 27 26 24 22 21 20 18 18 18 16 15 15 14 13 12 11 10 10 10 10 10 9 8 8 7 6 6 5 5 5 5 6 6 7 8 8 8 8 8 8 8 8 9 9 9 8 8 8 8 8 7 7 7 7 7 7 7 8 7 6 6 7 7
7 7 7 7 6 6 6 5 2 10 12 11 12 13 13 14 18 21 21 22 24 26 26 25 24 23 21 21 19 18 18 16 14 14 15 12 11 12 10 8 10 10 10 10 9 9 8 7 7 6 6 5 5 6 5 5 7 7 7 8 7 7 8 7 7 7 8 7 8 9 8 6 5 5 6 5 5 6 5 5 6 5 4 4 4
7 7 7 7 7 7 7 4 4 5 8 7 8 10 11 13 15 19 21 21 22 23 24 24 23 22 21 20 19 19 18 17 14 13 15 13 10 11 10 8 8 10 11 11 9 9 9 8 8 7 6 6 5 6 5 5 6 6 6 7 6 6 6 6 6 6 6 5 6 7 6 4 5 5 3 3 4 4 4 3 4 4 4 3 3
8 8 8 7 7 8 8 7 6 4 5 7 7 7 8 10 13 17 19 20 20 20 21 21 22 21 21 20 19 18 17 17 15 12 14 15 10 10 10 9 8 8 10 11 9 10 10 9 9 9 8 7 7 6 6 6 6 6 6 6 6 6 6 6 6 5 5 5 4 5 5 4 5 5 3 3 4 4 4 4 4 3 3 3 2
8 8 8 7 7 9 9 9 8 5 4 6 7 7 7 8 11 15 17 18 18 18 19 19 19 18 19 18 17 16 14 14 13 11 12 14 12 9 10 10 9 8 10 11 10 11 11 11 11 10 10 9 9 9 8 7 7 7 7 6 6 6 6 5 5 5 4 4 4 4 5 4 4 5 4 3 4 5 4 5 6 5 4 4 3
8 8 8 8 9 10 10 10 11 8 6 6 6 8 9 9 10 13 15 16 14 13 15 16 16 15 16 16 16 15 13 11 10 8 7 9 9 8 8 8 10 9 9 10 11 12 13 13 12 12 12 12 11 11 11 9 9 8 8 8 7 7 7 6 5 5 5 4 3 3 2 2 3 5 4 3 4 4 3 4 4 3 4 4 5
8 8 8 8 9 10 10 11 13 12 9 8 7 7 8 9 10 12 13 13 11 9 10 12 13 12 12 13 13 12 11 10 10 9 7 6 7 6 7 7 9 11 11 11 11 12 14 14 14 14 14 14 13 13 13 12 11 11 10 10 9 9 9 8 7 6 6 5 4 3 2 1 1 3 3 3 4 5 5 6 5 3 4 4 5
8 9 9 8 9 11 10 11 13 13 11 11 12 12 9 5 7 12 12 13 13 11 11 10 11 10 11 12 11 10 9 9 10 10 9 9 8 6 8 9 9 11 12 13 13 13 14 15 15 16 16 16 15 16 16 14 14 14 13 12 12 12 11 11 10 9 7 7 6 4 4 3 2 1 2 2 4 5 5 7 6 5 6 7 6
9 9 8 8 10 12 12 12 12 12 11 11 12 12 12 12 11 12 12 11 12 12 12 11 10 9 10 12 11 11 11 11 12 11 9 9 10 9 8 10 12 11 10 12 13 14 16 16 17 17 17 17 17 17 17 17 16 16 15 15 15 13 13 13 12 10 10 9 8 6 5 5 4 2 1 2 3 4 4 5 6 7 8 9 8
9 8 7 8 11 12 12 13 13 13 12 10 10 9 8 10 12 14 15 14 12 12 12 13 10 8 9 11 10 10 12 13 15 14 12 12 14 14 12 12 12 13 13 12 13 14 15 17 19 19 18 18 18 18 18 18 18 17 17 17 16 15 14 14 13 11 11 10 9 8 7 6 6 4 2 2 2 2 3 4 6 7 8 9 9
8 8 7 8 10 10 11 12 13 13 13 13 13 12 11 10 9 11 12 13 13 11 11 12 12 9 8 8 8 8 10 11 14 15 14 14 15 15 15 15 15 14 14 14 16 18 18 19 20 21 21 20 19 19 18 18 17 17 17 17 16 16 15 15 14 12 12 11 10 9 8 7 6 5 3 3 2 2 3 4 5 7 8 10 11
8 8 7 6 6 8 10 12 13 14 14 13 14 14 13 13 12 12 12 12 11 11 9 8 8 9 7 5 4 4 4 6 8 10 12 14 16 17 18 20 19 17 15 17 22 23 22 20 20 20 22 22 21 20 19 19 17 16 17 17 15 15 16 15 14 13 13 12 11 9 8 8 7 6 5 4 3 3 3 4 5 7 8 10 11
8 7 6 6 6 7 8 10 11 13 13 13 13 13 13 13 13 13 12 12 11 11 10 8 8 8 7 5 3 2 3 3 4 4 6 10 12 15 18 21 22 21 20 23 26 25 22 22 22 22 22 22 21 20 18 19 19 18 18 18 17 16 16 16 15 14 13 12 12 10 9 9 8 6 6 5 5 4 4 5 6 7 8 9 10
8 7 7 8 7 6 7 8 10 11 12 12 12 11 12 12 12 12 11 11 10 10 10 9 9 9 7 6 5 4 4 3 3 4 5 7 10 12 14 17 20 22 24 26 26 25 23 21 21 22 22 21 21 21 19 17 17 18 20 20 19 18 17 16 15 14 13 12 12 11 9 9 8 8 9 9 7 6 7 8 8 7 7 8 10
8 9 8 8 7 6 6 7 9 10 10 11 10 10 10 11 11 11 11 10 9 8 9 8 9 8 5 5 5 4 4 3 3 4 5 7 9 11 12 15 18 21 24 25 25 24 23 20 19 22 24 23 23 23 21 19 19 20 22 21 20 19 18 16 15 14 13 12 12 10 10 10 10 11 12 11 9 9 9 9 9 8 8 8 9
8 9 7 7 7 6 6 7 8 9 9 10 10 10 10 10 9 9 9 9 8 7 7 6 6 6 3 2 2 2 1 2 2 2 3 4 6 9 12 14 16 19 20 21 22 22 22 21 21 23 25 27 26 24 23 23 23 24 24 22 20 19 17 16 15 14 13 12 11 10 11 12 13 13 13 12 12 10 8 8 9 8 8 9 9
8 9 7 6 6 6 6 6 6 7 7 7 7 8 9 9 8 7 7 7 7 6 5 4 4 4 2 1 1 1 1 1 2 2 2 3 4 5 7 9 11 13 14 15 17 18 19 20 21 23 25 27 27 26 25 24 24 25 26 23 20 19 17 16 15 14 13 13 12 11 11 13 14 14 13 13 11 9 9 10 9 7 8 9 10
8 8 9 8 6 4 5 5 5 6 7 6 4 5 8 8 6 5 6 6 5 5 4 4 3 2 1 1 1 0 2 2 2 2 3 4 4 4 6 7 8 9 10 11 13 15 16 17 18 19 21 23 25 25 25 23 21 23 26 24 20 18 17 16 15 14 13 13 12 12 11 11 12 12 12 10 9 10 12 11 9 9 9 11 12
10 7 7 9 8 6 4 2 2 4 5 4 3 4 7 6 4 4 5 4 4 4 4 4 3 1 1 1 0 2 3 2 2 3 4 4 5 6 7 7 8 9 9 10 11 13 14 16 16 16 17 18 21 23 24 23 21 22 25 23 19 17 17 16 14 13 13 12 11 12 11 9 9 9 10 10 10 12 12 10 8 9 10 12 14
7 7 5 4 8 9 6 2 2 2 3 2 0 3 5 4 5 5 4 3 3 3 4 3 2 1 1 1 2 2 3 3 3 4 5 6 7 8 8 8 8 9 10 11 12 13 14 15 16 16 15 16 18 19 21 23 24 24 26 23 18 16 16 15 13 13 13 12 10 10 9 8 8 9 10 10 10 9 9 7 7 8 10 13 15
5 3 1 6 11 10 5 1 3 2 2 5 4 4 4 5 5 5 4 3 3 3 3 3 2 2 2 2 3 3 3 3 4 5 6 7 7 8 9 9 9 10 12 13 13 14 15 16 16 16 16 16 16 16 18 22 25 26 27 23 16 14 15 14 12 13 13 12 10 9 9 9 10 11 11 12 11 11 11 11 11 12 14 16 16
1 2 5 8 10 6 2 0 2 5 6 6 3 1 2 3 3 3 4 5 5 4 3 3 3 3 3 4 4 3 3 4 5 6 6 7 8 8 9 9 10 11 12 13 14 14 15 15 15 15 15 15 14 14 17 21 24 26 26 22 17 14 15 14 11 11 11 10 9 9 10 11 12 12 12 13 13 14 15 15 15 16 17 18 18
3 7 8 6 4 1 3 2 2 6 8 7 6 4 4 4 4 5 5 5 6 6 6 5 5 5 5 5 5 5 5 6 6 7 7 8 8 8 9 10 11 12 13 13 14 15 15 15 14 13 14 14 13 15 18 20 23 25 25 21 18 16 15 12 10 9 9 9 9 10 11 11 11 11 12 13 14 16 18 18 18 18 18 18 19
9 8 4 3 2 3 4 2 4 8 9 9 9 8 6 6 6 7 7 7 8 8 7 6 6 6 6 5 5 6 7 7 7 8 9 9 9 10 11 11 12 14 14 14 14 14 15 14 12 10 11 13 14 16 19 21 23 24 22 18 15 14 12 9 8 7 8 9 10 11 11 12 12 13 14 15 16 17 16 15 15 16 17 19 20
2 1 4 4 2 3 4 4 8 12 12 10 10 9 8 9 9 9 9 9 9 9 8 8 8 8 7 7 7 7 8 9 9 10 10 10 10 11 12 13 14 15 15 14 14 14 13 10 9 8 9 12 14 17 20 21 22 22 19 15 11 10 9 8 8 8 8 8 8 9 9 11 13 15 15 15 15 14 14 13 13 15 17 19 20
5 6 6 5 4 5 6 8 12 13 12 11 11 11 12 11 10 10 11 10 11 11 10 11 11 10 10 10 9 9 10 11 11 11 11 11 11 12 13 14 14 14 15 15 13 10 6 4 4 6 8 9 12 17 20 21 20 19 17 14 10 8 7 7 6 6 5 5 5 8 10 10 11 13 13 12 12 12 13 14 16 17 19 20 21
12 13 15 14 11 11 11 13 15 14 13 14 14 14 14 13 12 13 13 13 13 13 12 12 12 12 12 12 12 12 12 12 12 12 12 11 12 13 14 15 15 15 14 11 6 3 5 6 5 6 7 8 13 19 21 20 19 18 16 14 11 8 6 5 4 3 3 4 5 9 10 8 8 9 9 9 12 14 16 19 20 20 20 20 21
14 16 16 15 15 15 16 17 17 16 16 15 15 15 15 14 14 14 13 14 14 14 14 14 14 14 15 14 14 14 13 13 13 13 13 13 13 14 15 15 15 13 7 3 4 6 7 7 6 7 8 12 17 22 22 21 19 17 14 11 8 6 3 3 3 4 6 7 8 10 10 6 6 9 11 13 17 19 20 20 19 17 17 18 18
15 16 17 17 17 18 18 18 18 18 17 16 16 16 16 15 15 15 15 15 15 15 16 16 16 16 16 15 15 15 15 15 15 15 15 15 14 14 15 15 14 9 4 6 6 7 9 9 9 9 11 16 21 23 22 20 18 14 10 7 6 4 4 5 6 8 8 8 8 9 9 7 9 13 16 18 18 17 15 14 13 14 15 16 17
16 17 18 19 20 20 20 20 20 20 19 18 17 17 17 16 16 16 16 16 17 17 17 17 18 18 17 17 17 17 16 16 16 16 16 15 14 15 15 13 10 6 5 7 7 8 9 10 12 12 15 19 22 21 18 16 14 12 8 6 5 4 4 4 5 6 6 7 8 10 11 13 16 18 18 16 14 12 11 11 12 14 16 17 18
19 19 19 20 22 22 22 21 21 20 19 18 18 18 19 19 18 18 18 18 19 19 19 19 19 18 18 18 18 17 17 17 17 16 15 14 14 12 10 7 5 5 5 6 7 9 10 11 13 14 17 21 22 19 16 13 11 9 6 5 3 2 1 1 3 4 5 7 9 11 13 17 19 18 15 13 12 10 10 12 14 15 16 17 19
22 22 22 22 23 23 23 21 20 19 19 19 19 20 21 21 20 20 20 20 20 20 20 19 19 19 19 18 17 17 17 15 15 14 14 14 12 7 4 4 6 7 7 7 8 10 11 13 14 15 17 19 20 18 15 12 10 8 6 5 3 2 1 2 4 6 6 7 9 12 15 16 16 14 13 14 14 12 12 12 14 15 16 16 16
23 23 22 21 20 19 20 19 18 18 19 20 20 21 21 21 21 21 21 21 21 21 20 19 18 18 18 17 18 17 16 15 14 14 13 11 6 4 5 7 8 8 8 8 11 12 13 14 15 16 16 18 18 17 14 12 10 7 4 3 2 2 2 3 4 5 8 10 12 13 13 12 11 12 12 13 13 12 12 13 14 15 15 15 16
21 20 20 19 19 20 20 20 20 20 20 20 21 21 21 21 22 21 22 23 23 21 20 19 19 19 18 18 17 16 16 16 14 12 9 5 3 5 6 7 7 8 9 12 15 16 16 17 17 18 18 18 16 15 13 12 10 7 4 4 4 2 1 1 3 7 10 11 10 9 8 8 11 12 12 12 11 11 13 14 15 16 17 17 18
20 20 20 20 20 21 21 21 21 21 21 21 21 22 22 22 22 22 22 22 23 22 22 20 19 19 19 19 18 18 18 15 8 4 5 6 9 9 8 7 8 9 11 14 17 17 16 18 19 19 19 18 16 15 14 12 10 8 6 5 4 2 1 3 5 8 9 8 7 8 9 10 12 13 13 14 15 15 16 16 16 17 17 18 18
18 19 20 19 19 19 19 20 21 21 21 21 21 22 22 21 21 21 22 22 22 23 22 21 21 21 20 20 20 19 17 12 8 11 12 11 10 10 9 8 8 10 11 14 17 18 19 20 19 17 17 18 18 16 13 10 8 6 4 3 2 3 4 7 8 7 8 9 8 10 11 11 13 15 15 15 15 15 16 16 17 17 19 19 20
16 17 18 18 17 17 19 20 20 20 20 20 21 21 21 21 21 21 22 23 23 23 22 21 21 20 20 21 19 13 10 11 13 14 15 16 15 14 12 10 9 11 13 15 17 19 21 22 20 18 17 17 16 14 11 8 7 5 4 4 6 6 6 8 9 8 9 10 9 9 11 13 14 15 14 14 14 15 15 16 18 19 20 20 20
Wind_Direction
176 160 160 171 165 166 177 165 150 156 160 160 158 150 146 145 143 142 142 138 136 136 138 136 131 129 124 115 107 102 115 114 92 80 76 67 64 66 65 56 48 42 30 38 47 38 43 62 39 9 3 36 202 201 201 205 206 203 203 216 219 195 191 192 171 170 187 212 167 314 287 283 279 275 284 303 306 302 306 297 289 295 307 296 254
167 158 162 166 163 172 179 159 155 174 172 167 166 156 151 150 147 146 147 144 143 143 140 129 124 125 128 132 126 110 109 115 103 86 82 77 66 65 67 57 52 50 42 51 50 34 48 82 58 18 15 28 19 183 197 202 201 203 201 187 198 220 218 210 192 176 170 187 169 137 273 276 270 261 267 276 281 287 300 296 285 281 292 306 293
167 163 167 167 159 162 177 166 165 190 188 174 172 161 155 154 150 149 149 148 146 144 140 124 113 111 107 110 110 97 91 98 97 90 89 85 76 75 75 66 57 56 54 60 63 45 44 66 71 52 27 26 39 57 88 142 171 187 184 177 181 209 226 230 219 196 180 171 160 154 138 271 239 241 255 241 248 262 274 285 282 278 282 292 293
170 172 172 168 156 155 173 177 178 197 197 181 176 166 160 157 153 153 151 150 148 144 143 135 122 113 102 97 105 107 97 93 94 93 92 86 80 77 72 66 60 57 52 55 65 54 45 62 75 70 54 42 52 61 72 77 94 165 183 177 172 180 208 223 224 210 191 171 139 120 99 60 179 141 221 208 217 236 236 271 264 271 277 279 284
171 176 178 165 153 160 175 183 188 200 202 189 180 171 165 160 156 155 153 152 150 146 148 143 132 124 115 108 108 111 109 106 106 104 102 94 86 80 73 68 65 61 53 57 64 58 57 65 63 69 74 63 48 50 67 73 73 80 99 139 148 165 183 190 191 203 201 191 180 133 123 143 166 126 254 221 1 301 243 247 249 269 276 276 288
169 168 178 165 151 166 180 188 195 204 206 194 183 177 169 163 158 156 155 154 152 150 152 146 137 134 129 125 125 128 133 129 122 115 109 101 94 88 79 72 69 66 62 66 66 59 64 53 37 61 76 50 33 46 58 67 75 71 66 77 106 143 153 146 145 156 187 197 197 182 156 131 133 122 68 338 329 321 298 273 268 275 275 278 289
163 160 167 164 162 170 177 188 195 208 214 197 185 183 172 164 161 159 157 156 155 154 153 147 141 141 139 143 151 147 135 124 120 116 109 107 104 97 90 82 74 71 68 70 67 56 62 53 40 53 60 48 40 49 52 57 69 66 64 73 76 96 112 109 116 131 151 168 168 167 172 143 140 139 129 157 281 307 312 302 296 279 269 273 272
163 165 161 165 188 184 177 187 190 206 223 205 186 185 175 167 163 160 159 158 158 157 154 149 147 148 147 156 161 146 128 122 123 123 117 118 115 108 104 94 82 80 75 71 71 65 66 65 53 46 47 58 65 56 50 53 63 63 64 70 69 76 89 96 106 110 114 107 102 142 173 190 168 147 153 170 173 230 263 283 301 289 267 264 257
166 168 165 167 188 198 195 194 193 202 218 211 188 183 177 169 164 162 160 160 161 160 157 152 153 154 152 161 160 140 131 132 134 133 130 130 123 114 109 100 90 88 83 79 78 75 72 70 64 52 48 57 65 66 62 58 60 60 60 63 65 69 70 82 102 102 104 97 82 164 213 219 204 189 182 192 200 215 245 259 273 268 262 264 254
158 166 174 171 178 192 196 194 195 198 206 215 202 184 176 171 166 164 162 162 164 162 158 155 158 159 157 166 158 140 141 146 143 142 142 142 133 125 118 108 103 96 93 94 89 85 81 74 69 61 57 61 64 68 73 70 69 67 65 64 64 66 63 69 82 82 88 79 50 41 20 342 203 182 153 213 254 247 275 300 286 267 270 279 262
187 183 175 161 169 179 184 185 189 191 191 207 215 190 176 173 169 166 164 164 166 165 161 158 161 163 162 169 160 148 154 154 147 150 153 153 149 144 138 127 119 111 109 108 100 96 93 86 78 69 67 68 67 71 75 71 69 68 69 69 68 67 63 66 70 67 70 63 49 46 40 38 44 51 46 24 6 354 346 344 331 320 318 321 306
305 5 72 97 155 168 173 177 180 185 185 197 212 197 178 176 171 167 165 165 167 167 164 161 163 166 167 170 164 157 163 160 154 159 161 160 162 157 151 143 136 131 127 123 113 105 101 95 86 79 80 76 71 75 79 77 74 72 71 69 69 69 68 71 70 61 63 62 54 53 51 48 46 43 37 28 24 17 5 345 332 334 330 333 336
257 66 66 59 29 165 174 177 177 183 188 192 200 195 182 180 175 170 166 166 168 168 167 165 165 168 169 172 169 163 167 166 161 164 166 165 169 167 163 157 152 149 147 144 134 121 111 102 94 92 95 91 90 88 86 83 81 80 77 70 71 69 66 69 67 60 61 58 51 53 55 51 48 46 38 32 32 17 8 357 339 344 341 329 328
45 57 56 59 29 344 210 192 180 177 185 189 187 185 183 185 181 175 169 166 168 169 169 168 167 169 171 174 172 167 170 170 167 170 170 170 174 175 174 168 164 161 159 163 152 137 129 119 116 115 107 105 107 104 100 95 90 91 90 83 79 77 75 75 72 70 68 62 59 60 59 53 44 40 36 30 29 21 15 14 356 343 333 317 310
61 70 63 61 45 20 23 339 169 160 175 188 181 178 184 190 189 182 172 167 168 170 170 170 170 170 171 175 175 172 173 174 172 174 174 176 178 179 181 176 171 169 168 175 168 152 149 143 141 138 126 123 116 107 105 100 97 101 103 99 93 90 88 81 77 80 77 77 82 73 64 63 48 37 39 31 27 28 20 13 4 343 332 321 318
70 75 76 72 61 51 47 16 74 141 160 180 179 179 189 198 196 189 178 169 169 171 171 171 171 170 170 175 178 175 177 179 179 178 179 184 183 180 186 185 176 174 175 182 175 162 166 162 155 155 147 146 135 121 121 116 112 112 110 108 103 95 93 85 79 81 76 80 90 80 71 71 62 52 48 40 33 30 23 11 359 350 349 335 326
72 66 67 73 75 74 77 58 49 108 138 161 180 185 193 202 203 196 184 172 171 172 172 172 171 172 172 175 179 177 177 181 184 183 181 185 187 181 185 190 182 176 178 188 184 171 178 173 169 174 166 163 160 146 152 150 134 129 124 121 116 112 110 103 95 89 82 79 78 77 76 62 61 66 46 37 47 31 31 28 2 354 350 338 327
88 79 68 67 76 80 83 82 70 73 117 147 163 173 192 205 206 201 188 177 173 170 172 174 171 172 174 176 180 180 179 181 186 188 181 183 189 184 187 194 189 180 182 192 189 181 189 185 181 190 184 178 178 168 171 168 153 151 146 138 139 133 122 115 114 108 101 90 71 72 73 41 37 46 21 23 35 21 19 7 345 338 324 323 328
97 89 82 71 72 83 87 90 95 98 112 134 145 153 176 203 209 201 188 181 178 168 167 174 173 173 176 178 182 182 181 180 181 184 175 175 185 190 194 197 194 190 189 196 198 193 198 196 193 199 196 191 188 183 184 179 172 174 165 161 167 150 136 140 139 128 119 107 88 81 75 47 26 26 18 17 7 357 5 359 348 341 323 314 306
100 94 90 76 69 72 76 88 97 98 105 123 140 152 165 190 205 195 181 177 180 172 165 167 171 172 172 178 183 184 185 182 179 180 165 166 183 195 202 201 200 202 199 199 202 202 206 206 203 205 204 200 197 192 193 189 186 189 182 180 182 166 161 168 157 146 145 134 117 107 83 29 26 28 23 14 353 338 322 317 322 318 308 297 283
100 104 100 93 89 81 79 87 82 71 84 111 115 123 150 177 181 173 165 158 161 179 178 167 166 169 169 175 180 181 186 182 177 181 178 180 190 204 229 229 210 209 212 210 209 210 215 214 210 211 210 207 204 201 199 194 193 194 191 192 189 179 179 182 175 173 169 164 159 151 156 190 36 22 13 358 341 331 312 298 286 271 284 294 291
101 105 105 105 108 104 97 89 78 69 69 70 63 60 58 76 134 146 148 146 151 174 187 170 162 163 159 160 165 174 185 186 182 184 188 197 203 213 244 254 239 224 216 215 220 223 225 224 221 218 216 213 209 207 205 200 198 198 195 195 192 186 189 188 183 184 182 179 179 170 166 180 196 319 346 345 337 340 340 328 322 325 322 318 316
104 102 103 104 106 110 110 104 101 99 86 63 56 57 47 40 62 91 104 115 134 154 163 156 159 173 168 162 165 175 183 187 191 190 184 192 205 213 235 252 254 249 234 224 231 232 228 231 233 228 225 221 215 212 211 206 204 204 200 199 197 191 193 194 187 188 192 187 183 180 179 190 205 225 267 296 318 324 330 332 328 328 322 312 305
113 112 115 117 114 113 112 111 113 113 110 104 97 93 77 55 51 62 73 78 91 118 139 142 147 174 188 185 190 195 194 194 197 200 195 193 201 208 222 238 244 248 245 237 238 237 232 234 236 233 232 229 222 218 216 211 210 211 206 203 201 197 197 199 194 192 196 191 186 189 190 195 202 200 220 262 293 307 310 325 326 321 318 315 313
124 124 124 125 124 121 118 118 118 117 117 117 114 113 109 98 82 74 77 77 77 92 118 131 134 144 160 174 186 196 204 202 197 199 194 187 187 194 213 233 236 235 241 244 243 240 237 237 238 235 234 233 229 224 220 217 216 217 214 209 205 202 201 203 199 197 198 191 185 191 196 196 199 198 206 230 249 279 303 315 317 316 313 313 314
125 122 118 114 112 114 117 120 120 121 121 118 117 117 113 110 108 103 98 97 93 94 103 113 124 131 133 137 150 171 210 214 201 199 195 189 188 193 208 224 227 223 232 248 250 243 237 240 245 244 240 237 234 228 222 219 218 221 220 214 210 210 207 205 204 200 199 195 190 193 198 200 202 202 203 217 236 253 281 295 298 304 307 308 310
128 119 113 106 97 98 105 111 116 120 121 119 117 115 114 112 108 104 103 105 109 112 111 105 106 114 121 129 140 166 216 229 215 212 212 211 216 222 226 230 231 228 230 240 245 243 243 249 253 251 246 242 241 240 235 227 220 219 221 216 213 214 211 209 207 202 200 201 200 198 199 203 206 206 206 207 211 226 250 267 277 287 294 299 303
140 133 130 119 110 103 97 98 106 109 108 108 108 107 109 109 104 103 103 102 105 113 114 111 109 111 122 138 150 166 185 207 227 221 219 227 239 248 245 240 237 235 234 237 240 240 242 247 253 256 254 247 243 242 244 245 236 226 221 217 214 213 212 211 208 203 203 203 199 197 201 204 207 210 211 209 219 251 264 261 263 271 282 294 300
154 146 143 132 126 127 120 114 113 115 116 114 113 111 107 105 105 106 106 103 101 101 105 112 118 120 128 140 147 159 167 183 215 218 214 221 230 237 238 235 234 233 235 237 238 238 237 234 240 250 252 247 242 236 235 247 254 241 225 215 212 213 212 210 206 202 203 201 197 200 205 207 214 221 220 226 253 276 273 266 270 272 272 280 289
163 149 145 138 135 131 124 125 125 125 128 127 128 129 122 114 112 111 109 109 105 101 103 109 113 113 117 136 144 157 172 187 206 214 220 223 227 229 227 227 230 234 240 243 242 243 243 240 239 243 246 246 246 243 234 235 244 241 227 214 209 211 211 209 204 200 202 202 201 207 211 213 222 230 234 249 270 278 271 273 280 276 275 280 285
182 157 151 146 146 147 137 130 124 118 119 120 126 131 127 122 121 121 118 112 109 110 114 116 113 116 134 166 145 149 219 246 240 245 249 245 246 246 238 234 236 241 247 248 245 244 245 241 236 237 243 247 247 246 242 237 238 235 224 210 201 204 208 208 203 200 203 203 201 209 219 223 229 238 248 261 273 277 280 289 289 280 279 280 280
228 185 168 158 154 157 140 132 139 142 137 139 153 146 132 128 127 123 116 113 120 128 131 130 129 129 154 146 107 232 265 269 260 268 277 273 272 273 267 264 263 261 259 253 248 246 245 244 238 234 239 245 245 245 242 238 235 231 219 205 195 198 203 203 201 200 202 204 204 211 221 228 233 240 250 260 270 278 286 292 289 283 282 281 281
254 235 194 172 159 148 128 110 157 154 135 139 163 143 125 125 136 139 135 138 149 153 151 149 152 163 173 163 245 275 280 287 281 280 289 289 283 279 277 279 279 278 275 267 260 257 254 253 250 242 237 240 242 241 237 232 228 223 214 201 194 196 196 196 199 200 202 205 207 210 217 226 235 244 252 256 262 272 280 284 280 280 285 288 288
254 234 209 158 117 109 98 23 335 49 55 11 154 126 133 156 168 162 156 163 180 179 168 163 175 196 194 220 248 256 272 293 301 299 298 294 290 288 290 290 285 281 280 273 265 263 261 258 255 250 243 239 238 236 232 227 221 215 208 199 192 192 191 194 202 204 204 206 207 210 218 227 237 247 255 258 257 259 266 278 284 286 290 292 292
316 295 89 93 92 95 94 14 329 356 321 267 226 162 173 195 184 173 175 195 221 217 196 188 196 213 241 257 252 241 247 269 283 289 291 290 291 293 293 290 285 280 279 276 269 263 261 259 257 253 249 245 238 232 229 224 215 208 203 196 190 190 190 194 202 201 199 205 214 224 231 236 243 252 258 258 256 252 256 269 281 285 287 288 288
206 84 75 79 81 78 75 354 322 309 289 269 243 174 224 235 215 208 210 216 226 232 233 231 218 224 255 265 259 252 252 260 270 276 282 284 286 289 290 287 283 278 274 274 273 268 263 260 257 253 249 246 236 226 224 219 208 202 198 191 185 182 182 186 192 194 200 213 226 235 238 244 251 258 260 259 260 263 267 275 281 284 286 286 286
46 95 99 99 87 24 270 251 289 288 288 297 305 294 271 264 260 256 250 241 237 239 243 239 227 230 249 255 255 258 258 260 264 267 273 277 279 281 281 280 280 278 273 270 271 271 269 266 263 254 244 238 226 214 213 209 201 196 192 186 180 178 178 185 194 200 212 225 233 238 241 248 255 262 268 272 274 276 278 280 282 282 284 285 287
24 34 70 151 176 247 261 290 319 298 290 290 287 280 275 272 267 267 267 261 257 255 254 251 250 254 258 254 253 257 258 260 263 266 271 275 276 277 276 275 276 276 275 272 270 271 271 267 264 255 243 235 222 206 200 195 190 188 185 179 178 179 181 192 205 214 224 231 241 249 250 252 257 263 270 274 273 274 276 278 280 283 285 286 289
84 265 224 216 224 259 279 299 291 283 281 281 281 281 276 271 269 270 270 267 266 266 267 270 271 269 267 264 262 260 258 259 261 261 264 266 268 271 272 271 272 272 272 270 267 268 268 262 254 246 239 234 217 196 188 186 184 182 179 173 171 178 186 197 209 218 226 230 243 262 265 259 256 258 262 266 267 270 272 273 278 285 288 289 291
306 282 289 306 287 267 287 291 280 278 278 277 277 276 272 271 270 268 267 267 268 266 265 265 266 265 265 263 260 257 254 253 254 255 256 258 261 265 267 267 267 268 269 271 273 265 244 207 203 214 217 219 204 182 175 180 182 178 173 165 161 169 178 187 200 216 235 248 265 279 278 267 258 258 263 267 270 275 279 282 286 289 288 287 289
300 309 326 331 314 297 294 284 278 280 279 274 272 270 267 266 265 263 262 262 262 262 261 261 261 260 259 257 257 257 256 255 254 255 256 258 261 265 265 264 265 266 264 265 265 222 160 142 156 183 185 187 185 176 170 172 173 168 164 162 157 150 148 159 174 205 254 272 290 293 282 264 257 265 271 279 287 293 296 296 297 296 294 293 295
296 303 311 307 294 286 278 272 271 271 269 269 271 270 269 267 263 261 262 263 264 264 263 262 260 259 258 257 258 258 257 258 258 257 257 260 262 265 265 263 264 262 250 199 144 143 139 133 142 163 168 170 174 171 166 165 165 163 161 166 166 159 168 204 231 265 276 278 291 295 284 264 267 285 294 303 307 307 306 305 306 307 307 307 306
285 286 289 289 286 282 279 282 287 287 285 285 279 272 271 270 267 266 267 267 266 265 264 264 263 262 261 261 260 259 258 257 257 255 255 256 258 262 263 262 260 249 185 120 117 129 128 121 122 137 156 166 167 166 164 165 166 162 160 171 185 204 235 254 267 275 276 277 284 286 282 283 295 301 306 311 313 313 312 312 313 312 311 310 306
279 275 278 281 282 282 283 284 282 280 280 279 277 276 275 272 270 270 269 268 268 267 265 265 264 264 263 262 262 261 260 258 257 254 251 249 250 255 258 258 255 238 179 140 132 135 134 128 123 132 152 162 163 163 164 165 163 159 164 185 207 229 250 268 282 281 273 272 278 281 282 287 292 298 305 311 313 315 317 316 313 311 310 308 302
286 283 283 284 282 281 282 285 287 290 290 285 284 285 284 281 279 276 271 268 267 265 263 262 263 263 262 261 260 259 257 256 254 252 250 249 250 253 255 249 229 210 202 182 157 148 149 144 137 139 152 161 163 163 162 161 164 168 178 190 193 199 220 314 341 335 311 286 279 278 279 284 291 300 306 306 303 305 310 314 315 314 310 306 301
284 283 282 280 279 278 278 282 289 297 298 296 293 288 284 282 281 277 274 271 268 265 263 262 263 263 263 263 264 263 262 261 258 255 253 255 254 243 216 209 203 203 212 203 175 158 153 149 145 146 152 160 165 166 164 166 169 168 163 158 151 157 217 297 321 326 312 291 282 283 285 291 299 305 303 296 293 295 300 310 319 318 310 304 299
284 286 287 286 287 291 294 296 297 296 293 292 291 288 286 285 283 280 279 276 270 267 264 262 263 266 265 264 264 266 268 268 269 270 268 265 260 208 185 194 198 199 201 189 172 163 157 151 147 148 151 156 161 163 165 166 163 158 160 172 201 239 271 288 294 302 305 303 302 302 303 307 312 311 304 297 293 293 301 312 321 322 316 310 307
289 298 306 309 307 304 303 301 302 301 296 291 289 287 285 283 281 279 279 278 276 274 270 265 263 264 264 263 264 266 267 265 266 269 268 254 181 168 178 182 189 201 203 189 175 167 163 158 154 153 152 152 154 159 164 166 167 171 174 169 171 169 139 331 307 312 317 317 321 328 330 321 314 317 324 326 322 322 323 324 322 319 316 313 311
308 313 314 312 307 304 303 300 297 297 295 292 290 286 282 280 278 276 274 274 274 275 275 272 265 261 261 262 259 259 262 261 250 204 183 166 157 163 167 172 194 214 215 196 177 165 160 158 154 153 153 149 148 150 156 163 170 174 169 159 158 155 50 6 349 341 342 350 355 343 331 325 328 337 344 342 337 333 329 325 321 317 315 313 310
317 315 308 305 304 304 303 299 294 292 290 287 285 283 281 278 276 274 270 267 264 263 263 262 259 256 253 251 252 253 252 238 185 151 145 139 139 152 160 169 194 210 208 189 169 158 157 154 149 148 152 153 151 147 147 154 156 148 144 134 98 76 54 36 28 16 4 2 351 328 326 340 349 348 343 336 331 327 324 322 320 317 315 312 308
311 307 304 303 304 305 303 300 298 297 294 291 288 286 283 280 276 272 269 266 262 259 255 252 251 248 244 244 246 238 208 177 154 143 138 128 118 120 127 135 156 173 173 164 154 152 155 154 149 144 142 144 144 140 136 136 128 109 99 96 90 87 76 53 42 33 15 358 331 317 335 352 351 342 336 330 328 326 322 318 315 312 309 307 304